Content
SEND FEEDBACK

Daily
Averages
Monthly
Summary
United States of America

AUSTIN - OAK RUN WEST, TEXAS


Home > North America > United States > Texas
Elevation: 1120 feet     Latitude: 30 13N     Longitude: 097 59W

WEATHER
 
SELECT A DAY
Number of Records: 182,340;   Date Range: 1/1/95 - 8/30/14
 
SHARE

PRINT THIS DATA

[ ← Previous Day ]
WEATHER ALMANAC - JANUARY 31, 2013
[ Next Day → ]
[ °C ]   °F
Weather ElementAverageHighLow
Temperature51.5 °F69.1 °F (1:51 pm)33.1 °F (3:51 am)
Dewpoint21 °F27 °F (5:51 am)15.1 °F (1:51 pm)
Humidity36.4 %78 % (5:51 am)13 % (1:51 pm)
Barometer30.24 in30.30 in (9:51 am)30.19 in (2:51 pm)
Wind Speed3.3 mph9.2 mph (10:51 am)
Wind Gust17.3 mph (2:51 pm)
Weather ElementAverage
Visibility10 mi
Wind DirectionE (86.1 °)

Weather ElementTotal
Precipitation---
Heating Degree Days13.9 (Base 65)
Growing Degree Days1.1 (Base 50)
Averaged from 23 records on January 31, 2013
WEATHER CONDITIONS BREAKOUT
WIND DIRECTION BREAKOUT
WEATHER BY HOUR - JANUARY 31, 2013
[ °C ]   °F
Local TimeTemperatureDewpointHumidityBarometerVisibilityWind DirectionWind SpeedGust SpeedPrecipitationEventsConditions
1:51 AM37.0 °F23.0 °F57 %30.23 in10.0 miCalmClear
2:51 AM39.9 °F18.0 °F41 %30.21 in10.0 miCalmClear
3:51 AM33.1 °F25.0 °F72 %30.22 in10.0 miCalmClear
4:51 AM34.0 °F24.1 °F67 %30.23 in10.0 miCalmClear
5:51 AM33.1 °F27.0 °F78 %30.24 in10.0 miCalmClear
6:51 AM33.1 °F25.0 °F72 %30.26 in10.0 miWNW (300°)3.5 mphClear
7:51 AM37.0 °F23.0 °F57 %30.27 in10.0 miCalmClear
8:51 AM44.1 °F27.0 °F51 %30.29 in10.0 miCalmClear
9:51 AM51.1 °F21.9 °F32 %30.30 in10.0 miVariable3.5 mphClear
10:51 AM61.0 °F18.0 °F19 %30.30 in10.0 miSW (220°)9.2 mphClear
11:51 AM64.0 °F17.1 °F16 %30.28 in10.0 miVariable4.6 mphClear
12:51 PM66.9 °F16.0 °F14 %30.25 in10.0 miSSW (200°)9.2 mph16.1 mphClear
1:51 PM69.1 °F15.1 °F13 %30.22 in10.0 miSSW (200°)8.1 mph16.1 mphClear
2:51 PM69.1 °F16.0 °F13 %30.19 in10.0 miSSW (210°)8.1 mph17.3 mphClear
3:51 PM69.1 °F17.1 °F14 %30.19 in10.0 miSW (220°)9.2 mphClear
4:51 PM66.9 °F18.0 °F15 %30.19 in10.0 miVariable6.9 mphClear
5:51 PM63.0 °F18.0 °F18 %30.19 in10.0 miSSW (200°)6.9 mphClear
6:51 PM57.0 °F19.9 °F24 %30.23 in10.0 miCalmClear
7:51 PM55.0 °F21.0 °F27 %30.26 in10.0 miSW (230°)3.5 mphClear
8:51 PM52.0 °F21.9 °F31 %30.26 in10.0 miCalmClear
9:51 PM51.1 °F23.0 °F33 %30.27 in10.0 miCalmClear
10:51 PM50.0 °F23.0 °F35 %30.27 in10.0 miCalmClear
11:51 PM48.9 °F25.0 °F39 %30.28 in10.0 miSSW (200°)3.5 mphClear
Hourly data recorded from KATT, located miles away from Austin - Oak Run West, Texas







STORIES FROM OUR PARTNERS